| time (UTC) | temp C | wind direction | speed KPH | gust KPH | rain 1hr cm | rain 24hr cm | rain mn cm | humidity % | barometer mb |
| 20260504110516 | 6 | 0.0 | 0.0 | 0.00 | 0.00 | 0.00 | 87 | 1014.5 | |
| 20260504100516 | 6 | 0.0 | 1.6 | 0.00 | 0.00 | 0.00 | 86 | 1014.4 | |
| 20260504081516 | 6 | 0.0 | 3.2 | 0.00 | 0.00 | 0.00 | 85 | 1014.8 | |
| 20260504080516 | 6 | 0.0 | 0.0 | 0.00 | 0.00 | 0.00 | 86 | 1014.8 | |
| 20260504050516 | 7 | 0.0 | 0.0 | 0.00 | 0.00 | 0.00 | 63 | 1015.2 | |
| 20260504045516 | 7 | 0.0 | 0.0 | 0.00 | 0.00 | 0.00 | 62 | 1015.3 | |
| 20260504044536 | 7 | 0.0 | 1.6 | 0.00 | 0.00 | 0.00 | 62 | 1015.4 | |
| 20260504043517 | 7 | 0.0 | 1.6 | 0.00 | 0.00 | 0.00 | 63 | 1015.3 | |
| 20260504042516 | 7 | 0.0 | 0.0 | 0.00 | 0.00 | 0.00 | 62 | 1015.2 | |
| 20260504041516 | 7 | 0.0 | 0.0 | 0.00 | 0.00 | 0.00 | 61 | 1015.2 | |
| 20260504040515 | 7 | 0.0 | 1.6 | 0.00 | 0.00 | 0.00 | 64 | 1015.1 | |
| 20260504035516 | 8 | 0.0 | 0.0 | 0.00 | 0.00 | 0.00 | 61 | 1015.0 | |
| 20260504034515 | 8 | 0.0 | 0.0 | 0.00 | 0.00 | 0.00 | 61 | 1014.9 | |
| 20260504033556 | 8 | 0.0 | 0.0 | 0.00 | 0.00 | 0.00 | 64 | 1015.0 | |
| 20260504032515 | 8 | 0.0 | 0.0 | 0.00 | 0.00 | 0.00 | 63 | 1014.8 | |
| 20260504031515 | 8 | 0.0 | 0.0 | 0.00 | 0.00 | 0.00 | 59 | 1014.9 | |
| 20260504030535 | 9 | 0.0 | 0.0 | 0.00 | 0.00 | 0.00 | 58 | 1014.8 | |
| 20260504025517 | 9 | 0.0 | 1.6 | 0.00 | 0.00 | 0.00 | 54 | 1014.7 | |
| 20260504024537 | 10 | 0.0 | 1.6 | 0.00 | 0.00 | 0.00 | 54 | 1014.7 | |
| 20260504023517 | 10 | 0.0 | 3.2 | 0.00 | 0.00 | 0.00 | 54 | 1014.7 | |
| 20260504022517 | 10 | 0.0 | 0.0 | 0.00 | 0.00 | 0.00 | 56 | 1014.5 | |
| 20260504021517 | 11 | 0.0 | 0.0 | 0.00 | 0.00 | 0.00 | 53 | 1014.5 | |
| 20260504020517 | 11 | 0.0 | 0.0 | 0.00 | 0.00 | 0.00 | 47 | 1014.5 | |
| 20260504015517 | 12 | 0.0 | 0.0 | 0.00 | 0.00 | 0.00 | 46 | 1014.5 | |
| 20260504014517 | 12 | 0.0 | 3.2 | 0.00 | 0.00 | 0.00 | 44 | 1014.5 | |
| 20260504013517 | 12 | 0.0 | 3.2 | 0.00 | 0.00 | 0.00 | 44 | 1014.4 | |
| 20260504012518 | 12 | 0.0 | 4.8 | 0.00 | 0.00 | 0.00 | 42 | 1014.3 | |
| 20260504011518 | 13 | 0.0 | 3.2 | 0.00 | 0.00 | 0.00 | 40 | 1014.3 | |
| 20260504010517 | 13 | 0.0 | 4.8 | 0.00 | 0.00 | 0.00 | 39 | 1014.1 | |
| 20260504005518 | 13 | 248 | 1.6 | 4.8 | 0.00 | 0.00 | 0.00 | 37 | 1014.1 |
| 20260504004517 | 13 | 0.0 | 1.6 | 0.00 | 0.00 | 0.00 | 37 | 1014.0 | |
| 20260504003557 | 14 | 225 | 1.6 | 4.8 | 0.00 | 0.00 | 0.00 | 36 | 1014.0 |
| 20260504002517 | 14 | 158 | 1.6 | 6.4 | 0.00 | 0.00 | 0.00 | 36 | 1013.9 |
| 20260504001517 | 15 | 248 | 1.6 | 4.8 | 0.00 | 0.00 | 0.00 | 34 | 1014.0 |
| 20260504000518 | 15 | 0.0 | 0.0 | 0.00 | 0.00 | 0.00 | 34 | 1013.9 | |
| 20260503235517 | 15 | 0.0 | 0.0 | 0.00 | 0.00 | 0.00 | 34 | 1013.8 | |
| 20260503234537 | 15 | 315 | 1.6 | 6.4 | 0.00 | 0.00 | 0.00 | 34 | 1013.6 |
| 20260503233517 | 16 | 315 | 1.6 | 3.2 | 0.00 | 0.00 | 0.00 | 33 | 1013.7 |
| 20260503232517 | 16 | 315 | 1.6 | 8.0 | 0.00 | 0.00 | 0.00 | 32 | 1013.5 |
| 20260503231517 | 16 | 293 | 3.2 | 9.7 | 0.00 | 0.00 | 0.00 | 33 | 1013.5 |
| 20260503230517 | 16 | 293 | 3.2 | 8.0 | 0.00 | 0.00 | 0.00 | 32 | 1013.5 |
| 20260503225515 | 16 | 315 | 3.2 | 6.4 | 0.00 | 0.00 | 0.00 | 32 | 1013.4 |
| 20260503224516 | 16 | 315 | 6.4 | 17.7 | 0.00 | 0.00 | 0.00 | 31 | 1013.3 |
| 20260503223515 | 16 | 315 | 6.4 | 17.7 | 0.00 | 0.00 | 0.00 | 31 | 1013.3 |
| 20260503222515 | 16 | 315 | 4.8 | 14.5 | 0.00 | 0.00 | 0.00 | 32 | 1013.5 |
| 20260503221516 | 16 | 315 | 4.8 | 11.3 | 0.00 | 0.00 | 0.00 | 31 | 1013.5 |
| 20260503220515 | 17 | 225 | 4.8 | 14.5 | 0.00 | 0.00 | 0.00 | 30 | 1013.5 |
| 20260503215515 | 17 | 293 | 4.8 | 17.7 | 0.00 | 0.00 | 0.00 | 32 | 1013.5 |
| 20260503214536 | 17 | 315 | 4.8 | 14.5 | 0.00 | 0.00 | 0.00 | 30 | 1013.6 |
| 20260503213517 | 17 | 315 | 3.2 | 16.1 | 0.00 | 0.00 | 0.00 | 31 | 1013.6 |
| 20260503212537 | 17 | 293 | 4.8 | 12.9 | 0.00 | 0.00 | 0.00 | 31 | 1013.8 |
| 20260503211518 | 17 | 315 | 8.0 | 17.7 | 0.00 | 0.00 | 0.00 | 30 | 1013.7 |
| 20260503210558 | 17 | 315 | 4.8 | 11.3 | 0.00 | 0.00 | 0.00 | 29 | 1013.7 |
| 20260503205518 | 17 | 293 | 6.4 | 12.9 | 0.00 | 0.00 | 0.00 | 30 | 1013.8 |
| 20260503204517 | 17 | 315 | 6.4 | 17.7 | 0.00 | 0.00 | 0.00 | 29 | 1013.6 |
| 20260503203518 | 17 | 293 | 6.4 | 17.7 | 0.00 | 0.00 | 0.00 | 32 | 1013.8 |
| 20260503202517 | 17 | 293 | 6.4 | 12.9 | 0.00 | 0.00 | 0.00 | 32 | 1013.8 |
| 20260503201517 | 17 | 293 | 6.4 | 14.5 | 0.00 | 0.00 | 0.00 | 30 | 1013.9 |
| 20260503200517 | 17 | 315 | 8.0 | 16.1 | 0.00 | 0.00 | 0.00 | 30 | 1014.0 |
| 20260503195518 | 17 | 315 | 4.8 | 11.3 | 0.00 | 0.00 | 0.00 | 33 | 1014.3 |
| 20260503194538 | 16 | 270 | 3.2 | 11.3 | 0.00 | 0.00 | 0.00 | 32 | 1014.4 |
| 20260503193518 | 16 | 293 | 6.4 | 14.5 | 0.00 | 0.00 | 0.00 | 32 | 1014.6 |
| 20260503192537 | 16 | 315 | 4.8 | 12.9 | 0.00 | 0.00 | 0.00 | 33 | 1014.8 |
| 20260503191517 | 15 | 315 | 6.4 | 12.9 | 0.00 | 0.00 | 0.00 | 31 | 1014.8 |
| 20260503190517 | 16 | 315 | 9.7 | 22.5 | 0.00 | 0.00 | 0.00 | 32 | 1015.0 |
| 20260503185537 | 16 | 315 | 8.0 | 19.3 | 0.00 | 0.00 | 0.00 | 33 | 1015.0 |
| 20260503184517 | 16 | 293 | 9.7 | 19.3 | 0.00 | 0.00 | 0.00 | 33 | 1015.2 |
| 20260503183537 | 16 | 315 | 4.8 | 12.9 | 0.00 | 0.00 | 0.00 | 34 | 1015.2 |
| 20260503182517 | 15 | 315 | 4.8 | 11.3 | 0.00 | 0.00 | 0.00 | 35 | 1015.2 |
| 20260503181517 | 15 | 293 | 4.8 | 14.5 | 0.00 | 0.00 | 0.00 | 35 | 1015.5 |
| 20260503180517 | 15 | 315 | 8.0 | 19.3 | 0.00 | 0.00 | 0.00 | 36 | 1015.5 |
| 20260503175517 | 15 | 293 | 8.0 | 17.7 | 0.00 | 0.00 | 0.00 | 35 | 1015.6 |
| 20260503174517 | 15 | 315 | 9.7 | 20.9 | 0.00 | 0.00 | 0.00 | 37 | 1015.6 |
| 20260503173557 | 15 | 293 | 8.0 | 19.3 | 0.00 | 0.00 | 0.00 | 39 | 1015.8 |
| 20260503172517 | 14 | 293 | 8.0 | 17.7 | 0.00 | 0.00 | 0.00 | 40 | 1015.8 |
| 20260503171518 | 14 | 315 | 6.4 | 16.1 | 0.00 | 0.00 | 0.00 | 40 | 1015.9 |
| 20260503170517 | 13 | 293 | 6.4 | 17.7 | 0.00 | 0.00 | 0.00 | 45 | 1016.1 |
| 20260503150517 | 11 | 315 | 8.0 | 16.1 | 0.00 | 0.00 | 0.00 | 46 | 1017.1 |
| 20260503130516 | 8 | 315 | 3.2 | 9.7 | 0.00 | 0.00 | 0.00 | 58 | 1017.4 |